EW5855 Weather Reports


Display with metric or nautical units.
time (UTC)temp
F
wind
direction
speed
MPH
gust
MPH
rain 1hr
in
rain 24hr
in
rain mn
in
humidity
%
barometer
mb
20260902194519 71 224 0.0 1.0 0.00 0.00 0.00 86 1019.4
20260902193535 71 216 1.0 2.0 0.00 0.00 0.00 86 1019.3
20260902192532 71 199 0.0 1.0 0.00 0.00 0.00 87 1019.4
20260902191527 71 233 0.0 1.0 0.00 0.00 0.00 87 1019.7
20260902190543 71 196 0.0 1.0 0.00 0.00 0.00 86 1019.8
20260902185520 70 202 0.0 1.0 0.00 0.00 0.00 87 1019.9
20260902184515 70 262 3.0 4.0 0.00 0.00 0.00 85 1020.1
20260902183533 70 250 3.0 3.0 0.00 0.00 0.00 85 1020.0
20260902182528 70 239 2.0 3.0 0.00 0.00 0.00 86 1019.8
20260902181523 71 237 1.0 2.0 0.00 0.00 0.00 83 1020.0
20260902180519 71 270 3.0 4.0 0.00 0.00 0.00 83 1019.8
20260902175535 71 230 2.0 3.0 0.00 0.00 0.00 83 1020.0
20260902174531 71 249 2.0 4.0 0.00 0.00 0.00 85 1019.9
20260902173527 71 230 1.0 3.0 0.00 0.00 0.00 86 1020.0
20260902172542 70 254 2.0 4.0 0.00 0.00 0.00 86 1020.1
20260902171538 70 247 2.0 3.0 0.00 0.00 0.00 84 1020.0
20260902170534 70 232 1.0 2.0 0.00 0.00 0.00 83 1020.1
20260902165530 71 209 1.0 2.0 0.00 0.00 0.00 83 1020.0
20260902164525 72 182 1.0 3.0 0.00 0.00 0.00 80 1020.1
20260902163521 72 233 1.0 6.0 0.00 0.00 0.00 78 1020.3
20260902162518 71 168 1.0 3.0 0.00 0.00 0.00 79 1020.3
20260902161533 71 191 2.0 4.0 0.00 0.00 0.00 81 1020.4
20260902160529 70 167 1.0 3.0 0.00 0.00 0.00 80 1020.4
20260902155526 70 179 1.0 4.0 0.00 0.00 0.00 81 1020.5
20260902154520 70 235 1.0 3.0 0.00 0.00 0.00 80 1020.7
20260902153535 70 188 0.0 1.0 0.00 0.00 0.00 82 1021.1
20260902152551 70 194 1.0 3.0 0.00 0.00 0.00 81 1021.0
20260902151526 70 184 1.0 2.0 0.00 0.01 0.00 83 1021.0
20260902150522 69 203 0.0 2.0 0.00 0.01 0.00 88 1021.1
20260902145518 70 0.0 0.0 0.00 0.02 0.00 87 1021.0
20260902144534 69 196 1.0 2.0 0.00 0.03 0.00 86 1021.1
20260902143530 69 188 1.0 3.0 0.00 0.05 0.00 84 1021.2
20260902142526 69 238 0.0 1.0 0.00 0.06 0.00 86 1021.2
20260902141523 69 254 0.0 1.0 0.00 0.07 0.00 86 1021.1
20260902140519 68 0.0 0.0 0.00 0.07 0.00 87 1021.3
20260902135534 68 212 0.0 1.0 0.00 0.07 0.00 86 1021.2
20260902134550 68 179 0.0 2.0 0.00 0.07 0.00 85 1021.0
20260902133526 68 221 1.0 1.0 0.00 0.07 0.00 85 1020.8
20260902132521 68 208 1.0 2.0 0.00 0.07 0.00 84 1020.7
20260902131517 68 236 1.0 3.0 0.00 0.07 0.00 84 1020.1
20260902130553 68 207 1.0 2.0 0.00 0.07 0.00 84 1020.2
20260902125528 67 192 1.0 2.0 0.00 0.07 0.00 86 1020.5
20260902124524 67 209 0.0 2.0 0.00 0.07 0.00 87 1020.3
20260902123520 67 218 1.0 3.0 0.00 0.07 0.00 86 1020.5
20260902122537 67 230 1.0 3.0 0.00 0.07 0.00 86 1020.5
20260902121553 67 248 1.0 2.0 0.00 0.07 0.00 87 1020.2
20260902120527 67 225 0.0 2.0 0.00 0.07 0.00 88 1020.1
20260902115524 66 242 1.0 3.0 0.00 0.07 0.00 91 1020.3
20260902114520 65 219 0.0 1.0 0.00 0.07 0.00 94 1020.2
20260902113556 65 230 0.0 2.0 0.00 0.07 0.00 96 1020.5
20260902112551 64 209 0.0 2.0 0.00 0.08 0.00 98 1020.6
20260902111547 64 213 0.0 1.0 0.00 0.08 0.00 99 1020.7
20260902110522 64 236 1.0 2.0 0.00 0.08 0.00 99 1020.6
20260902105518 63 239 1.0 2.0 0.00 0.09 0.00 99 1020.5
20260902104533 64 0.0 0.0 0.00 0.13 0.00 99 1020.4
20260902103529 64 0.0 0.0 0.00 0.17 0.00 99 1020.3
20260902102524 64 0.0 0.0 0.00 0.20 0.00 99 1020.2
20260902101619 64 0.0 0.0 0.00 0.23 0.00 99 1020.2
20260902100557 63 236 0.0 1.0 0.00 0.25 0.00 99 1020.2
20260902095532 64 249 2.0 2.0 0.00 0.27 0.00 99 1020.0
20260902094547 64 231 1.0 1.0 0.00 0.28 0.00 99 1020.0
20260902093523 64 234 1.0 1.0 0.00 0.29 0.00 99 1019.9
20260902092518 64 223 0.0 1.0 0.00 0.29 0.00 99 1019.9
20260902091534 64 202 0.0 1.0 0.00 0.29 0.00 99 1019.9
20260902090529 64 212 1.0 2.0 0.00 0.29 0.00 99 1019.9
20260902085604 64 219 0.0 1.0 0.00 0.29 0.00 99 1019.8
20260902084521 64 228 0.0 2.0 0.00 0.29 0.00 99 1019.8
20260902083534 64 214 0.0 2.0 0.00 0.29 0.00 99 1019.6
20260902082531 64 0.0 0.0 0.00 0.29 0.00 99 1019.7
20260902081524 64 0.0 0.0 0.00 0.29 0.00 99 1019.6
20260902080551 64 0.0 0.0 0.00 0.29 0.00 99 1019.7
20260902075535 64 0.0 0.0 0.00 0.29 0.00 99 1019.7
20260902074531 64 0.0 0.0 0.00 0.29 0.00 99 1019.7
20260902073546 64 0.0 0.0 0.00 0.29 0.00 99 1019.5
20260902072523 64 0.0 0.0 0.00 0.29 0.00 99 1019.7
20260902071518 64 0.0 0.0 0.00 0.29 0.00 99 1019.7
20260902070534 64 0.0 0.0 0.00 0.29 0.00 99 1019.5
20260902065530 64 0.0 0.0 0.00 0.29 0.00 99 1019.6
20260902064526 64 205 1.0 2.0 0.00 0.29 0.00 99 1019.6
20260902063521 64 0.0 0.0 0.00 0.29 0.00 99 1019.8
20260902062518 64 0.0 0.0 0.00 0.29 0.00 99 1019.8
20260902061534 64 0.0 0.0 0.00 0.29 0.00 99 1019.8
20260902060530 64 0.0 0.0 0.00 0.29 0.00 99 1019.6
20260902055545 64 0.0 0.0 0.00 0.29 0.00 99 1019.6
20260902054601 64 0.0 0.0 0.00 0.29 0.00 99 1019.5
20260902053538 65 0.0 0.0 0.00 0.29 0.00 99 1019.4
20260902052533 65 0.0 0.0 0.00 0.29 0.00 99 1019.3
20260902051549 65 0.0 0.0 0.00 0.29 0.00 99 1019.3
20260902050524 65 0.0 0.0 0.00 0.29 0.00 99 1019.2
20260902045535 65 0.0 0.0 0.00 0.29 0.00 99 1019.2
20260902044530 65 0.0 0.0 0.00 0.29 0.00 98 1019.1
20260902043526 65 0.0 0.0 0.00 0.29 0.00 98 1019.0
20260902042542 65 0.0 0.0 0.00 0.29 0.00 98 1018.8
20260902041517 65 0.0 0.0 0.00 0.29 0.00 98 1018.9
20260902040553 65 0.0 0.0 0.00 0.29 0.00 98 1018.8
20260902035528 66 231 0.0 1.0 0.00 0.29 0.29 97 1018.7
20260902034524 66 196 0.0 1.0 0.00 0.29 0.29 97 1018.6
20260902033519 66 238 1.0 3.0 0.00 0.29 0.29 96 1018.4
20260902032535 66 207 1.0 2.0 0.00 0.29 0.29 95 1018.4
20260902031531 66 249 1.0 3.0 0.00 0.29 0.29 94 1018.4
20260902030526 66 255 1.0 2.0 0.00 0.29 0.29 94 1018.3
20260902025521 66 189 1.0 2.0 0.00 0.29 0.29 96 1018.1
20260902024517 66 205 1.0 3.0 0.00 0.29 0.29 99 1018.4
20260902023532 65 239 2.0 3.0 0.00 0.29 0.29 99 1018.4
20260902022548 65 200 0.0 1.0 0.00 0.29 0.29 99 1018.3
20260902021523 66 252 0.0 2.0 0.00 0.29 0.29 99 1018.4
20260902020519 65 222 1.0 2.0 0.00 0.29 0.29 99 1018.3
20260902015535 66 209 1.0 2.0 0.00 0.29 0.29 99 1018.2
20260902014531 66 200 0.0 2.0 0.00 0.29 0.29 99 1018.0
20260902013606 66 186 0.0 1.0 0.00 0.29 0.29 98 1018.0
20260902012523 67 206 1.0 2.0 0.00 0.29 0.29 95 1017.8
20260902011518 67 77 3.0 6.0 0.00 0.29 0.29 92 1017.9
20260902010553 67 84 0.0 2.0 0.00 0.29 0.29 93 1017.9
20260902005528 67 122 1.0 4.0 0.00 0.29 0.29 95 1017.7
20260902004544 67 60 1.0 2.0 0.00 0.29 0.29 93 1017.7
20260902003519 67 26 1.0 2.0 0.00 0.29 0.29 94 1017.8
20260902002535 67 65 1.0 2.0 0.00 0.29 0.29 95 1017.9
20260902001531 66 0.0 0.0 0.00 0.29 0.29 96 1017.6
20260902000526 67 234 0.0 1.0 0.00 0.29 0.29 98 1017.5
20260901235522 67 263 1.0 1.0 0.00 0.29 0.29 97 1017.4
20260901234517 67 0.0 0.0 0.00 0.29 0.29 96 1017.4
20260901233553 67 0.0 0.0 0.00 0.29 0.29 95 1017.3
20260901232529 68 240 1.0 2.0 0.00 0.29 0.29 95 1017.3
20260901231545 68 238 0.0 1.0 0.00 0.29 0.29 95 1017.3
20260901230521 68 237 1.0 2.0 0.00 0.29 0.29 93 1017.3
20260901225516 69 258 1.0 2.0 0.00 0.29 0.29 92 1017.2
20260901224533 69 129 1.0 2.0 0.00 0.29 0.29 89 1017.0
20260901223528 69 104 1.0 2.0 0.00 0.29 0.29 88 1017.1
20260901222524 70 126 1.0 3.0 0.00 0.29 0.29 89 1017.2
20260901221519 70 131 1.0 2.0 0.00 0.29 0.29 88 1017.2
20260901220516 70 140 1.0 2.0 0.00 0.29 0.29 89 1017.1
20260901215532 70 95 1.0 4.0 0.00 0.29 0.29 88 1017.4
20260901214528 70 137 1.0 3.0 0.00 0.29 0.29 88 1017.2
20260901213524 70 89 1.0 3.0 0.00 0.29 0.29 88 1017.1
20260901212520 70 120 2.0 4.0 0.00 0.29 0.29 88 1017.0
20260901211536 71 211 1.0 2.0 0.00 0.29 0.29 88 1016.9
20260901210531 71 188 1.0 2.0 0.00 0.29 0.29 88 1016.8
20260901205527 71 135 1.0 3.0 0.00 0.29 0.29 88 1016.7
20260901204523 71 147 1.0 2.0 0.00 0.29 0.29 88 1016.7
20260901203517 72 142 1.0 3.0 0.00 0.29 0.29 88 1016.7
20260901202533 72 136 0.0 3.0 0.00 0.29 0.29 87 1016.7
20260901201550 73 190 1.0 3.0 0.00 0.29 0.29 85 1016.8
20260901200526 72 43 1.0 1.0 0.00 0.29 0.29 87 1016.7
20260901195521 73 197 1.0 2.0 0.00 0.29 0.29 85 1016.7